Flag for Denmark Weather past 2 weeks in Aalborg, Denmark

Now
16 °F

Ice fog.


Feels Like: 10 °F
Forecast: 37 / 42 °F
Wind: 3 mph from Southwest

Location: Aalborg Airport

Current Time: Dec 29, 2014 at 7:08:42 AM

Latest Report: Dec 29, 2014 at 6:20 AM


Visibility: 0 mi

Pressure: 30.36 "Hg

Humidity: 93%

Dew point: 14 °F

Location of AalborgLocation

Historic Weather in Aalborg — Graph

°F

Aalborg temperature yesterday

Maximum temperature yesterday: 32 °F (at 8:20 PM)
Minimum temperature yesterday: 19 °F (at 5:20 AM)
Average temperature yesterday: 27 °F

Past Weeks' High & Low Weather Summary

 TemperatureHumidityPressure
High48 °F (Dec 18, 11:20 AM)100% (Dec 16, 9:50 AM)30.36 "Hg (Dec 16, 9:50 AM)
Low16 °F (Dec 29, 5:50 AM)64% (Dec 25, 2:20 PM)29.21 "Hg (Dec 18, 9:50 PM)
Average38 °F89%29.67 "Hg
* Reported Dec 14 5:20 AM — Dec 29 5:50 AM, Aalborg, Weather by CustomWeather, © 2014

Note: Actual official high and low records may vary slightly from our data, if they occured in-between our weather recording intervals... More about our weather records

Advertising

Aalborg weather history for previous 24 hours

 ConditionsComfort  
Time TempWeatherWind HumidityBarometerVisibility
5:50 AM
Dec 29
16 °FIce fog.No wind100%30.36 "Hg0 mi
5:20 AM18 °FIce fog.1 mph93%30.36 "Hg1 mi
4:50 AM18 °FIce fog.1 mph93%30.36 "Hg1 mi
4:20 AM25 °FClear.2 mph100%30.36 "Hg5 mi
3:50 AM23 °FClear.2 mph100%30.33 "Hg10 mi
3:20 AM27 °FClear.3 mph100%30.33 "Hg10 mi
2:50 AM28 °FPassing clouds.5 mph93%30.33 "HgN/A
2:20 AM28 °FPassing clouds.5 mph100%30.30 "HgN/A
1:50 AM28 °FPassing clouds.3 mph100%30.30 "HgN/A
1:20 AM30 °FPassing clouds.5 mph100%30.30 "HgN/A
12:50 AM32 °FPartly cloudy.5 mph100%30.30 "HgN/A
12:20 AM32 °FPartly cloudy.6 mph100%30.27 "HgN/A
11:50 PM
Dec 28
32 °FPartly cloudy.9 mph100%30.27 "HgN/A
11:20 PM32 °FPartly cloudy.7 mph100%30.27 "HgN/A
9:50 PM30 °FIce fog.5 mph100%30.21 "Hg3 mi
9:20 PM30 °FIce fog.6 mph100%30.21 "Hg3 mi
8:50 PM30 °FLow clouds.5 mph100%30.21 "Hg4 mi
8:20 PM32 °FLow clouds.5 mph100%30.21 "Hg4 mi
7:50 PM30 °FLow clouds.6 mph100%30.18 "Hg4 mi
7:20 PM30 °FPassing clouds.7 mph100%30.18 "Hg5 mi
6:50 PM30 °FPartly cloudy.7 mph100%30.18 "Hg5 mi
6:20 PM30 °FLight snow. Partly cloudy.9 mph100%30.18 "Hg1 mi
5:50 PM30 °FSnow. Ice fog.12 mph100%30.18 "Hg1 mi
5:20 PM30 °FSnow. Ice fog.7 mph100%30.18 "Hg1 mi
4:50 PM30 °FSnow. Ice fog.7 mph100%30.18 "Hg1 mi
4:20 PM30 °FSnow. Ice fog.6 mph100%30.18 "Hg1 mi
3:50 PM30 °FSnow. Ice fog.3 mph100%30.21 "Hg1 mi
3:20 PM30 °FSnow. Ice fog.3 mph100%30.21 "Hg1 mi
3:01 PM30 °FSnow. Ice fog.5 mph100%30.24 "Hg1 mi
2:50 PM30 °FSnow showers. Ice fog.3 mph93%30.24 "Hg1 mi
2:20 PM30 °FSnow showers. Partly sunny.6 mph93%30.24 "Hg1 mi
1:50 PM30 °FBroken clouds.9 mph93%30.24 "HgN/A
1:20 PM30 °FBroken clouds.9 mph93%30.24 "HgN/A
12:50 PM30 °FBroken clouds.8 mph93%30.24 "HgN/A
12:20 PM30 °FBroken clouds.8 mph93%30.27 "HgN/A
11:50 AM30 °FPartly sunny.8 mph93%30.27 "HgN/A
11:20 AM30 °FPartly sunny.8 mph93%30.27 "HgN/A
10:50 AM30 °FBroken clouds.6 mph93%30.27 "HgN/A
10:20 AM28 °FPartly sunny.3 mph93%30.27 "HgN/A
9:50 AM28 °FPartly sunny.7 mph100%30.27 "HgN/A
9:20 AM28 °FPartly sunny.8 mph93%30.24 "HgN/A
8:50 AM27 °FPassing clouds.6 mph93%30.27 "HgN/A
8:20 AM23 °FPassing clouds.2 mph93%30.27 "HgN/A
7:50 AM23 °FPassing clouds.1 mph93%30.27 "HgN/A
7:20 AM21 °FPassing clouds.1 mph93%30.24 "HgN/A
Weather by CustomWeather, © 2014

See weather overviewHow to use our weather pages